Location: Beaufort Park
(39.1418°N, 76.9433°W)
Time: 20:12:02
(UTC+00:00)

Cosmos 2278 - Pass Details

Date: 29 October 2020
Orbit: 841 x 851 km, 71.1° (Epoch: 02 December)

Event Time Altitude Azimuth Distance (km) Brightness Sun altitude
Rises 23:05:50 0° 176° (S) 3,396 6.9 -11.4°
Reaches altitude 10° 23:08:28 10° 167° (SSE) 2,463 6.1 -11.9°
Maximum altitude 23:13:30 34° 104° (ESE) 1,366 4.3 -12.9°
Enters shadow 23:18:30 10° 41° (NE) 2,460 5.7 -13.9°
